Location: Krakow
(50.0830°N, 19.9170°E)
Time: 18:41:39
(UTC+01:00)

Transit 2A - Pass Details

Date: 10 February 2023
Orbit: 591 x 964 km, 66.7° (Epoch: 21 March)

Event Time Altitude Azimuth Distance (km) Brightness Sun altitude
Rises 15:04:59 0° 202° (SSW) 3,018 10.4 13.3°
Reaches altitude 10° 15:07:12 10° 199° (SSW) 2,157 9.6 13.0°
Maximum altitude 15:12:02 60° 120° (ESE) 864 6.4 12.4°
Drops below altitude 10° 15:17:28 10° 42° (NE) 2,419 8.0 11.8°
Sets 15:20:05 0° 39° (NE) 3,417 8.7 11.5°
